Preview of NWS' New Version of Forecast
This preview is not operational and should not be used for support decisions.

Regional Weather Roundup (RWR)

Issued by National Weather Service (NWS)

                            
000
ASUS42 KTBW 181616
RWRFL 
FLORIDA REGIONAL WEATHER ROUNDUP
NATIONAL WEATHER SERVICE TAMPA BAY RUSKIN FL
1200 PM EDT THU APR 18 2019

NOTE: "FAIR" INDICATES FEW OR NO CLOUDS BELOW 12,000 FEET WITH NO
SIGNIFICANT WEATHER AND/OR OBSTRUCTIONS TO VISIBILITY.

FLZ001>010-012>015-112-114-115-181700-
PANHANDLE FLORIDA
  
CITY           SKY/WX    TMP DP  RH WIND       PRES   REMARKS
PENSACOLA      CLOUDY    75  69  81 SE13      29.94R                  
PENSACOLA NAS  PTSUNNY   74  69  85 E13       29.93S                  
MILTON NAS     PTSUNNY   75  66  73 S13G22    29.95S                  
CRESTVIEW      CLOUDY    77  61  57 S15G22    29.98R                  
DUKE FIELD     PTSUNNY   76  63  65 S16G22    29.96R                  
VALPARAISO     MOSUNNY   76  67  76 SE15      29.96R                  
MARY ESTHER    CLOUDY    74  67  79 SE15G21   29.94S                  
PANAMA CITY    FAIR      78  66  66 SE17G26   29.97R                  
TYNDALL AFB    FAIR      77  69  76 S21G26    29.96R                  
APALACHICOLA   FAIR      77  68  73 S16G23    29.99R                  

STATION/POSITION SKY/WX   TEMP    WIND        PRES    WAVE   SWELL
                          AIR SEA DIR/SP/G            HT/PER HT/PER
                          (F)     (DEG/KT/KT) (MB)    (FT/S) (FT/S)
30.1N   87.6W                                 1013.2R   4/ 6   3/ 6
29.2N   88.2W                     150/ 19/ 23 1011.6
PANAMA CITY BEAC           72 71  150/ 16/ 18 1015.0R
TOWER C          NOT AVBL

$$
FLZ011-016>038-118-127-128-134-139-239-181700-
NORTH FLORIDA
  
CITY           SKY/WX    TMP DP  RH WIND       PRES   REMARKS
MARIANNA       FAIR      80  64  58 S14       29.95S                  
TALLAHASSEE    PTSUNNY   81  65  58 S12G22    29.98S                  
PERRY          CLOUDY    81  63  52 SW10G17   30.01S                  
LIVE OAK       PTSUNNY   79  59  50 SE9       30.01S                  
CROSS CITY     PTSUNNY   79  61  54 S15       30.02S                  
LAKE CITY      FAIR      79  59  50 SE12G20   30.02S                  
GAINESVILLE    FAIR      82  60  47 S13G21    30.04S                  
PALATKA        PTSUNNY   79  61  53 SW13      30.03S                  
MAYPORT NAS    PTSUNNY   80  64  58 SE13      30.03S                  
JACKSONVILLE   PTSUNNY   80  60  50 S14       30.02R                  
JAX NAS        PTSUNNY   82  57  42 S20       30.03S                  
JAX CECIL      PTSUNNY   84  59  42 MISG      30.02S                  
FERNANDINA BEA FAIR      78  65  64 SE13      30.03S                  
ST AUGUSTINE   FAIR      81  63  54 SE14G23   30.03F                  
PALM COAST     MOSUNNY   82  59  44 S12G17    30.02F                  

STATION/POSITION SKY/WX   TEMP    WIND        PRES    WAVE   SWELL
                          AIR SEA DIR/SP/G            HT/PER HT/PER
                          (F)     (DEG/KT/KT) (MB)    (FT/S) (FT/S)
SHELL POINT      NOT AVBL
KEATON BEACH               74     170/ 14/ 16 1016.6R
CEDAR KEY                  74     170/ 12/ 13 1016.7R
FERNANDINA                 79 69  140/  8/ 16 1017.6R
30.7N   81.3W                 69                N/A     2/ 9
MAYPORT                    76 68  140/  8/ 13 1017.0S
31.4N   80.9W              71 68  140/  6/  6 1017.6R   2/ 9   2/ 9
ST AUGUSTINE               74 71  150/ 12/ 13 1017.0F

$$
FLZ040-043>046-052-053-057-058-063-144-181700-
INTERIOR CENTRAL FLORIDA
  
CITY           SKY/WX    TMP DP  RH WIND       PRES   REMARKS
OCALA          PTSUNNY   80  61  52 S9        30.03R                  
LEESBURG       FAIR      80  60  50 S14       30.02F                  
SANFORD        PTSUNNY   82  63  52 S12       30.02F                  
ORLANDO EXEC   PTSUNNY   83  63  50 S17G23    30.02F                  
ORLANDO INTL   FAIR      84  64  50 S13       30.02F                  
KISSIMMEE      PTSUNNY   81  67  62 S14       30.03F                  
WINTER HAVEN   FAIR      82  66  58 S12       30.03F                  
LAKELAND       PTSUNNY   81  66  61 S13G20    30.03S                  
BARTOW         PTSUNNY   84  66  54 S12G18    30.01F                  
SEBRING        FAIR      83  69  62 SE13      30.02F                  
OKEECHOBEE     FAIR      82  70  65 SE10G16   30.01F                  

$$
FLZ041-047-054-059-064-141-147-181700-
EAST CENTRAL FLORIDA
  
CITY           SKY/WX    TMP DP  RH WIND       PRES   REMARKS
ORMOND BEACH   MOSUNNY   81  59  47 SE14G21   30.02F                  
DAYTONA BEACH  FAIR      80  63  55 S13G22    30.03F                  
DELAND         PTSUNNY   81  61  50 S18       30.02F                  
NEW SMYRNA BEA MOSUNNY   82  63  51 S14G21    30.04F                  
JFK SPACE CTR  FAIR      81  67  62 S16G22    30.03F                  
TITUSVILLE     PTSUNNY   84  66  54 SE17      30.05R                  
CAPE CANAVERAL FAIR      81  64  56 SE16      30.03S                  
PATRICK AFB    FAIR      81  70  67 SE18      30.03S                  
MELBOURNE      PTSUNNY   82  69  64 SE16G25   30.03S                  
VERO BEACH     PTSUNNY   84  70  62 SE18G28   30.03F                  
FT PIERCE      PTSUNNY   84  69  60 SE18G28   30.03S                  
STUART         PTSUNNY   82  70  65 SE16G25   30.04R                  

STATION/POSITION SKY/WX   TEMP    WIND        PRES    WAVE   SWELL
                          AIR SEA DIR/SP/G            HT/PER HT/PER
                          (F)     (DEG/KT/KT) (MB)    (FT/S) (FT/S)
28.5N   80.2W              77     140/ 14/ 16 1018.1R   4/ 8   2/ 8
28.9N   78.5W              76 77  130/ 16/ 19 1019.1S   4/ 5   2/ 8
TRIDENT PIER               80 77  130/ 10/ 14 1018.7R
28.4N   80.5W                 77                N/A     3/ 4
27.5N   80.2W                 76                N/A     4/ 4

$$
FLZ050-056-061-142-242-148-248-149-249-151-251-155-255-
160-260-181700-
WEST CENTRAL FLORIDA
  
CITY           SKY/WX    TMP DP  RH WIND       PRES   REMARKS
CRYSTAL RIVER  FAIR      81  59  47 S6        30.02R                  
INVERNESS      FAIR      81  63  54 S12G21    30.02S                  
BROOKSVILLE    FAIR      82  61  48 S15G24    30.02S                  
CLEARWATER AIR FAIR      79  63  57 SE10      29.99F                  
ST PETE CLEARW FAIR      80  66  62 SE14G22   29.99F                  
TAMPA INTL     FAIR      82  66  58 SE13G22   30.00F                  
TAMPA EXEC     FAIR      82  66  57 S7G17     30.01F                  
PLANT CITY     PTSUNNY   84  66  54 S12G20    30.03F                  
MACDILL AFB    FAIR      82  67  61 S12       29.99F                  
PETER O KNIGHT CLOUDY    82  70  65 S10       30.00F                  
ST PETERSBURG  FAIR      81  69  67 S9        29.98F                  
SARASOTA       FAIR      83  66  56 S14       29.98S                  
VENICE         FAIR      86  72  62 S17G23    30.00S                  

STATION/POSITION SKY/WX   TEMP    WIND        PRES    WAVE   SWELL
                          AIR SEA DIR/SP/G            HT/PER HT/PER
                          (F)     (DEG/KT/KT) (MB)    (FT/S) (FT/S)
27.3N   84.2W                 75                N/A     4/ 5
CLEARWATER BEACH           78 77  140/  8/ 12 1015.7F
MIDDLE TAMPA BAY           78     160/ 11/ 13 1015.9F
VENICE                     78 78  160/ 15/ 17 1015.6F

$$
FLZ066-069-070-075>078-162-262-165-265-181700-
SOUTHWEST FLORIDA AND KEYS
  
CITY           SKY/WX    TMP DP  RH WIND       PRES   REMARKS
PUNTA GORDA    FAIR      85  68  56 S15G23    30.01S                  
FT MYERS       PTSUNNY   83  69  62 SE15G22   29.99S                  
SOUTHWEST INTL PTSUNNY   84  69  60 SE16      30.00S                  
NAPLES         FAIR      86  71  60 SE13      29.99S                  
MARCO ISLAND   CLOUDY    85  70  60 SE15      30.01S                  
IMMOKALEE      FAIR      88  70  55 SE13      29.98S                  
MARATHON       FAIR      84  74  71 SE8       30.00F                  
KEY WEST NAS   FAIR      85  73  67 SE15      29.99F                  
KEY WEST INTL  FAIR      83  73  72 SE14      29.99F                  

STATION/POSITION SKY/WX   TEMP    WIND        PRES    WAVE   SWELL
                          AIR SEA DIR/SP/G            HT/PER HT/PER
                          (F)     (DEG/KT/KT) (MB)    (FT/S) (FT/S)
NAPLES                     82 80  120/ 11/ 16 1015.8R
DRY TORTUGAS               80     140/ 16/ 17 1015.1F
SAND KEY                   79                 1015.3F
SOMBRERO KEY               78                 1015.3F

$$
FLZ067-068-071>074-168-172>174-181700-
SOUTHEAST FLORIDA 
  
CITY           SKY/WX    TMP DP  RH WIND       PRES   REMARKS
W PALM BEACH   PTSUNNY   83  69  62 SE22      30.03S                  
FT LAUDER-EXEC PTSUNNY   84  69  60 SE16G24   30.02S                  
FT LAUDERDALE  FAIR      84  70  62 SE21      30.01F                  
POMPANO BEACH  FAIR      85  70  60 SE20      30.02S                  
PEMBROKE PINES FAIR      85  71  63 SE20G25   30.03F                  
OPA LOCKA      PTSUNNY   83  71  67 SE17      30.02F                  
MIAMI          PTSUNNY   84  72  67 SE20G28   30.02F                  
WEST KENDALL   FAIR      86  71  60 SE16G25   30.01F                  
HOMESTEAD      PTSUNNY   84  72  67 E16G22    30.00F                  

STATION/POSITION SKY/WX   TEMP    WIND        PRES    WAVE   SWELL
                          AIR SEA DIR/SP/G            HT/PER HT/PER
                          (F)     (DEG/KT/KT) (MB)    (FT/S) (FT/S)
PORT EVERGLADES            81     130/ 11/ 15 1016.9
VIRGINIA KEY               80 81  120/ 13/ 16 1016.1F
LAKE WORTH                 78 79  140/ 18/ 22 1018.0S
SETTLEMENT POINT           79     140/ 14/ 17 1017.4F

$$